This is the latest recevied weather packets stored in our database for station/object K4IR. If no packets are shown the sender has not sent any weather packets the latest 10 day(s).
| Time | Temp. | Humidity | Pressure | Rain* | Wind** | Luminosity | Snow |
|---|---|---|---|---|---|---|---|
| 1787594775 | 32.78° C | 74% | 1013.6 hPa | 0 mm | - | 766 W/m² | - |
| 1787594174 | 32.78° C | 74% | 1013.6 hPa | 0 mm | - | 766 W/m² | - |
| 1787593569 | 32.78° C | 75% | 1013.3 hPa | 0 mm | - | 742 W/m² | - |
| 1787592966 | 32.78° C | 75% | 1013.5 hPa | 0 mm | - | 752 W/m² | - |
| 1787592360 | 32.78° C | 77% | 1013.8 hPa | 0 mm | - | 778 W/m² | - |
| 1787591757 | 32.78° C | 75% | 1013.8 hPa | 0 mm | - | 767 W/m² | - |
| 1787591154 | 32.22° C | 76% | 1014 hPa | 0 mm | - | 720 W/m² | - |
| 1787590551 | 32.22° C | 75% | 1014.4 hPa | 0 mm | - | 221 W/m² | - |
| 1787589947 | 32.22° C | 74% | 1014.2 hPa | 0 mm | - | 696 W/m² | - |
| 1787589343 | 31.67° C | 75% | 1014.7 hPa | 0 mm | - | 732 W/m² | - |
| 1787588740 | 32.22° C | 74% | 1014.5 hPa | 0 mm | - | 729 W/m² | - |
| 1787588137 | 31.67° C | 74% | 1014.8 hPa | 0 mm | - | 729 W/m² | - |
| 1787587532 | 32.22° C | 74% | 1015.1 hPa | 0 mm | - | 713 W/m² | - |
| 1787586931 | 31.67° C | 74% | 1015.1 hPa | 0 mm | - | 690 W/m² | - |
| 1787586327 | 31.67° C | 74% | 1015 hPa | 0 mm | - | 674 W/m² | - |
| 1787585725 | 31.67° C | 76% | 1015.2 hPa | 0 mm | - | 171 W/m² | - |
| 1787585126 | 31.11° C | 74% | 1014.9 hPa | 0 mm | - | 159 W/m² | - |
| 1787584525 | 31.11° C | 74% | 1015 hPa | 0 mm | - | 322 W/m² | - |
| 1787583925 | 31.11° C | 75% | 1014.8 hPa | 0 mm | - | 100 W/m² | - |
| 1787583325 | 30.56° C | 75% | 1015 hPa | 0 mm | - | 115 W/m² | - |
| 1787582721 | 30.56° C | 77% | 1015.2 hPa | 0 mm | - | 107 W/m² | - |
| 1787582117 | 30° C | 76% | 1015.4 hPa | 0 mm | - | 162 W/m² | - |
| 1787581513 | 30° C | 77% | 1015.4 hPa | 0 mm | - | 105 W/m² | - |
| 1787580914 | 29.44° C | 82% | 1015.4 hPa | 0 mm | - | 137 W/m² | - |
| 1787580311 | 29.44° C | 83% | 1015.4 hPa | 0 mm | - | 122 W/m² | - |
* Rain latest hour (hover to see other rain measurements)
** Current wind speed in m/s (hover to see current wind gust speed)